• en Suisse
  • Liste des pays
  • À 7 jours
  • Température de l'eau
  • Carte satellitaire
  • Carte météo
  • Widgets météo
  • user-avatar
    Se connecter

    Météo par heure à Nizhniy Suyan

    Ce jour, 16 Juillet, Lundi

    Heure Température Précipitation Vent Pression Humidité
    00:00 +19°C° 0 mm 2 m/s 746 mmHg 89%
    01:00 +18°C° 0 mm 2 m/s 746 mmHg 91%
    02:00 +17°C° 0 mm 2 m/s 747 mmHg 92%
    03:00 +17°C° 0 mm 2 m/s 747 mmHg 94%
    04:00 +18°C° 0 mm 2 m/s 747 mmHg 96%
    05:00 +19°C° 0 mm 2 m/s 747 mmHg 91%
    06:00 +20°C° 0 mm 2 m/s 747 mmHg 86%
    07:00 +23°C° 0 mm 2 m/s 747 mmHg 81%
    08:00 +24°C° 0 mm 2 m/s 747 mmHg 74%
    09:00 +26°C° 0 mm 3 m/s 747 mmHg 66%
    10:00 +27°C° 0 mm 2 m/s 747 mmHg 58%
    11:00 +28°C° 0 mm 3 m/s 747 mmHg 55%
    12:00 +28°C° 0 mm 3 m/s 747 mmHg 53%
    13:00 +29°C° 0 mm 3 m/s 747 mmHg 51%
    14:00 +29°C° 0 mm 3 m/s 747 mmHg 53%
    15:00 +29°C° 0 mm 2 m/s 747 mmHg 53%
    16:00 +29°C° 0 mm 2 m/s 746 mmHg 53%
    17:00 +28°C° 0 mm 2 m/s 746 mmHg 59%
    18:00 +27°C° 0 mm 2 m/s 746 mmHg 65%
    19:00 +26°C° 0 mm 2 m/s 747 mmHg 72%
    20:00 +25°C° 0 mm 2 m/s 747 mmHg 75%
    21:00 +23°C° 0 mm 2 m/s 747 mmHg 79%
    22:00 +20°C° 0 mm 2 m/s 747 mmHg 83%
    23:00 +20°C° 0 mm 2 m/s 747 mmHg 85%

    Demain, 17 Juillet, Mardi

    Heure Température Précipitation Vent Pression Humidité
    00:00 +19°C° 0 mm 2 m/s 747 mmHg 87%
    01:00 +18°C° 0 mm 2 m/s 747 mmHg 88%
    02:00 +17°C° 0 mm 2 m/s 747 mmHg 90%
    03:00 +17°C° 0 mm 2 m/s 747 mmHg 91%
    04:00 +16°C° 0 mm 2 m/s 747 mmHg 92%
    05:00 +18°C° 0 mm 2 m/s 747 mmHg 87%
    06:00 +19°C° 0 mm 2 m/s 747 mmHg 82%
    07:00 +20°C° 0 mm 2 m/s 747 mmHg 78%
    08:00 +23°C° 0 mm 2 m/s 747 mmHg 71%
    09:00 +25°C° 0 mm 2 m/s 747 mmHg 64%
    10:00 +26°C° 0 mm 2 m/s 747 mmHg 57%
    11:00 +27°C° 0 mm 2 m/s 747 mmHg 54%
    12:00 +28°C° 0 mm 3 m/s 746 mmHg 51%
    13:00 +28°C° 0 mm 3 m/s 746 mmHg 49%
    14:00 +28°C° 0 mm 2 m/s 746 mmHg 52%
    15:00 +28°C° 0 mm 2 m/s 746 mmHg 55%
    16:00 +28°C° 0 mm 2 m/s 746 mmHg 58%
    17:00 +27°C° 0 mm 2 m/s 745 mmHg 64%
    18:00 +26°C° 0 mm 2 m/s 745 mmHg 69%
    19:00 +25°C° 0 mm 1 m/s 745 mmHg 75%
    20:00 +24°C° 0 mm 2 m/s 745 mmHg 76%
    21:00 +23°C° 0 mm 2 m/s 745 mmHg 77%
    22:00 +21°C° 0 mm 2 m/s 745 mmHg 78%
    23:00 +21°C° 0 mm 2 m/s 745 mmHg 80%

    Après-demain, 18 Juillet, Mercredi

    Heure Température Précipitation Vent Pression Humidité
    00:00 +20°C° 0 mm 2 m/s 745 mmHg 82%
    01:00 +20°C° 0 mm 2 m/s 745 mmHg 85%
    02:00 +20°C° 0,4 mm 2 m/s 745 mmHg 88%
    03:00 +19°C° 0,4 mm 2 m/s 745 mmHg 91%
    04:00 +19°C° 0,4 mm 2 m/s 745 mmHg 94%
    05:00 +19°C° 0,8 mm 2 m/s 745 mmHg 94%
    06:00 +19°C° 0,8 mm 2 m/s 745 mmHg 95%
    07:00 +19°C° 0,8 mm 3 m/s 745 mmHg 95%
    08:00 +20°C° 0 mm 3 m/s 745 mmHg 89%
    09:00 +21°C° 0 mm 4 m/s 745 mmHg 83%
    10:00 +22°C° 0 mm 4 m/s 745 mmHg 78%
    11:00 +23°C° 0 mm 4 m/s 745 mmHg 73%
    12:00 +25°C° 0 mm 4 m/s 745 mmHg 68%
    13:00 +26°C° 0 mm 5 m/s 745 mmHg 63%
    14:00 +27°C° 0 mm 5 m/s 745 mmHg 62%
    15:00 +27°C° 0 mm 4 m/s 745 mmHg 61%
    16:00 +28°C° 0 mm 4 m/s 745 mmHg 61%
    17:00 +27°C° 0,1 mm 4 m/s 745 mmHg 66%
    18:00 +26°C° 0,1 mm 4 m/s 745 mmHg 71%
    19:00 +25°C° 0,1 mm 3 m/s 745 mmHg 75%
    20:00 +24°C° 0,1 mm 3 m/s 745 mmHg 80%
    21:00 +21°C° 0,1 mm 3 m/s 745 mmHg 84%
    22:00 +20°C° 0,1 mm 2 m/s 745 mmHg 88%
    23:00 +20°C° 0,4 mm 2 m/s 745 mmHg 90%

    19 Juillet, Jeudi

    Heure Température Précipitation Vent Pression Humidité
    00:00 +19°C° 0,4 mm 2 m/s 745 mmHg 93%
    01:00 +19°C° 0,4 mm 2 m/s 745 mmHg 96%
    02:00 +19°C° 1,1 mm 2 m/s 746 mmHg 96%
    03:00 +19°C° 1,1 mm 2 m/s 746 mmHg 97%
    04:00 +19°C° 1,1 mm 2 m/s 746 mmHg 97%
    05:00 +19°C° 0,3 mm 2 m/s 746 mmHg 96%
    06:00 +19°C° 0,3 mm 2 m/s 746 mmHg 95%
    07:00 +20°C° 0,3 mm 3 m/s 746 mmHg 94%
    08:00 +21°C° 0 mm 3 m/s 746 mmHg 89%
    09:00 +22°C° 0 mm 3 m/s 746 mmHg 83%
    10:00 +24°C° 0 mm 3 m/s 746 mmHg 78%
    11:00 +25°C° 0 mm 3 m/s 746 mmHg 74%
    12:00 +26°C° 0 mm 3 m/s 746 mmHg 70%
    13:00 +27°C° 0 mm 3 m/s 746 mmHg 66%
    14:00 +26°C° 0,2 mm 3 m/s 746 mmHg 69%
    15:00 +26°C° 0,2 mm 3 m/s 746 mmHg 72%
    16:00 +26°C° 0,2 mm 4 m/s 746 mmHg 76%
    17:00 +25°C° 0,4 mm 3 m/s 746 mmHg 80%
    18:00 +24°C° 0,4 mm 3 m/s 746 mmHg 85%
    19:00 +22°C° 0,4 mm 3 m/s 746 mmHg 89%
    20:00 +21°C° 0,1 mm 3 m/s 746 mmHg 91%
    21:00 +20°C° 0,1 mm 3 m/s 746 mmHg 93%
    22:00 +19°C° 0,1 mm 3 m/s 746 mmHg 95%
    23:00 +18°C° 0 mm 3 m/s 746 mmHg 95%

    20 Juillet, Vendredi

    Heure Température Précipitation Vent Pression Humidité
    00:00 +18°C° 0 mm 3 m/s 746 mmHg 94%
    01:00 +17°C° 0 mm 3 m/s 746 mmHg 94%
    02:00 +17°C° 0,1 mm 3 m/s 746 mmHg 94%
    03:00 +17°C° 0,1 mm 3 m/s 746 mmHg 94%
    04:00 +17°C° 0,1 mm 3 m/s 747 mmHg 94%
    05:00 +18°C° 0 mm 3 m/s 747 mmHg 92%
    06:00 +19°C° 0 mm 4 m/s 747 mmHg 90%
    07:00 +20°C° 0 mm 4 m/s 747 mmHg 88%
    08:00 +21°C° 0 mm 4 m/s 747 mmHg 81%
    09:00 +22°C° 0 mm 4 m/s 747 mmHg 75%
    10:00 +25°C° 0 mm 4 m/s 747 mmHg 69%
    11:00 +26°C° 0,1 mm 4 m/s 747 mmHg 66%
    12:00 +27°C° 0,1 mm 4 m/s 747 mmHg 62%
    13:00 +28°C° 0,1 mm 4 m/s 747 mmHg 59%
    14:00 +28°C° 0,2 mm 4 m/s 747 mmHg 61%
    15:00 +28°C° 0,2 mm 4 m/s 747 mmHg 63%
    16:00 +27°C° 0,2 mm 4 m/s 747 mmHg 65%
    17:00 +27°C° 0,1 mm 4 m/s 747 mmHg 70%
    18:00 +26°C° 0,1 mm 3 m/s 747 mmHg 74%
    19:00 +25°C° 0,1 mm 3 m/s 747 mmHg 79%
    20:00 +22°C° 0 mm 3 m/s 747 mmHg 82%
    21:00 +21°C° 0 mm 3 m/s 747 mmHg 85%
    22:00 +20°C° 0 mm 3 m/s 747 mmHg 87%
    23:00 +20°C° 0 mm 3 m/s 747 mmHg 87%

    21 Juillet, Samedi

    Heure Température Précipitation Vent Pression Humidité
    00:00 +19°C° 0 mm 3 m/s 748 mmHg 86%
    01:00 +19°C° 0 mm 3 m/s 748 mmHg 86%
    02:00 +18°C° 0 mm 3 m/s 748 mmHg 85%
    03:00 +17°C° 0 mm 3 m/s 748 mmHg 83%
    04:00 +17°C° 0 mm 3 m/s 748 mmHg 82%
    05:00 +18°C° 0 mm 3 m/s 748 mmHg 78%
    06:00 +18°C° 0 mm 4 m/s 749 mmHg 75%
    07:00 +19°C° 0 mm 4 m/s 749 mmHg 71%
    08:00 +21°C° 0 mm 4 m/s 749 mmHg 65%
    09:00 +22°C° 0 mm 5 m/s 749 mmHg 59%
    10:00 +25°C° 0 mm 5 m/s 749 mmHg 52%
    11:00 +26°C° 0 mm 5 m/s 749 mmHg 50%
    12:00 +26°C° 0 mm 5 m/s 749 mmHg 48%
    13:00 +27°C° 0 mm 5 m/s 749 mmHg 46%
    14:00 +27°C° 0 mm 5 m/s 749 mmHg 48%
    15:00 +27°C° 0 mm 5 m/s 749 mmHg 49%
    16:00 +27°C° 0 mm 5 m/s 749 mmHg 50%
    17:00 +26°C° 0 mm 4 m/s 749 mmHg 56%
    18:00 +25°C° 0 mm 4 m/s 750 mmHg 62%
    19:00 +22°C° 0 mm 3 m/s 750 mmHg 67%
    20:00 +21°C° 0 mm 3 m/s 750 mmHg 69%
    21:00 +20°C° 0 mm 4 m/s 750 mmHg 71%
    22:00 +19°C° 0 mm 4 m/s 751 mmHg 72%
    23:00 +18°C° 0 mm 4 m/s 751 mmHg 75%
    Voir plus